カタログに戻る

HULIANWANG DIGUI-119

運用中通信LEO
NORAD 67059·PAYLOAD·🇨🇳 China

打ち上げ Dec 11, 2025 から Wenchang Space Launch Site

Loading…

次のパス (今後24時間)

TLE

最新Source: Space-Track

元期: Sep 14, 2026, 20:17 UTC

1 67059U 25295A   26257.84567494 -.00000119  00000-0  10919-4 0  9995
2 67059  50.0035  64.2150 0000810  64.8635 295.2321 13.29325778 37428

AllMySatでHULIANWANG DIGUI-119をリアルタイム追跡

Download on the App Store